Location: Namasale
(1.5000°N, 32.6167°E)
Time: 21:38:47
(UTC+00:00)

Skynet4D Del rocket - Pass Details

Date: 09 April 2020
Orbit: 763 x 1291 km, 26.9° (Epoch: 02 June)

Event Time Altitude Azimuth Distance (km) Brightness Sun altitude
Rises 16:08:07 0° 240° (WSW) 3,609 7.9 -4.0°
Reaches altitude 10° 16:10:53 10° 239° (WSW) 2,583 7.1 -4.7°
Maximum altitude 16:17:00 82° 152° (SSE) 838 3.7 -6.2°
Drops below altitude 10° 16:22:29 10° 64° (ENE) 2,324 5.5 -7.6°
Enters shadow 16:23:55 - 64° (ENE) 2,860 6.0 -7.9°
